Location: Córrego Montividiu
(13.2496°S, 48.8603°W)
Time: 10:43:11
(UTC+00:00)

Meteor 1-19 Rocket - Pass Details

Date: 11 March 2026
Orbit: 806 x 926 km, 81.2° (Epoch: 22 April)

Event Time Altitude Azimuth Distance (km) Brightness Sun altitude
Rises 22:30:10 0° 357° (N) 3,348 7.3 -14.9°
Reaches altitude 10° 22:32:31 10° 358° (N) 2,435 6.5 -15.5°
Maximum altitude 22:38:02 82° 85° (E) 867 4.1 -16.8°
Drops below altitude 10° 22:43:48 10° 172° (S) 2,537 6.7 -18.2°
Sets 22:46:18 0° 173° (S) 3,498 7.4 -18.8°
